{"data":{"norad_id":52161,"intl_designator":"2022-033E","name":"ARCSAT-1","alt_names":[],"object_type":"PAYLOAD","status":"ACTIVE","operator":null,"country":"NOR","launch_date":"2022-04-01","launch_site_code":"AFETR","launch_vehicle":null,"mission":null,"orbit_class":"UNKNOWN","rcs_meters":null,"size_class":null,"mass_kg":null,"dimensions":null,"purposes":[],"wikipedia_slug":null,"has_3d_model":false,"image_url":null,"decayed_at":null,"tle_current":{"epoch":"2026-09-20T12:17:26.245248Z","epoch_age_seconds":119809,"freshness":"FRESH","line1":"1 52161U 22033E   26263.51210932  .00010387  00000+0  15194-3 0  9998","line2":"2 52161  97.2729 357.3400 0004405 186.5278 173.5920 15.55789537250510","mean_motion":15.55789537,"eccentricity":0.0004405,"inclination_deg":97.2729,"raan_deg":357.34,"arg_perigee_deg":186.5278,"mean_anomaly_deg":173.592,"bstar":0.00015194,"rev_number":25051,"period_min":92.557506382047,"perigee_km":396.87280638278,"apogee_km":402.8442204301,"semimajor_km":6777.9955134064,"source":"CELESTRAK","updated_at":"2026-09-21T09:00:08.493096Z"}}}